Killeen, TX

11:07 PM CDT on September 28, 2016 (GMT -0500)
Hood Army Air Field

Weather History for KHLR - January, 2014

Change the Weather History Date:

Thursday, January 16, 2014

  Actual Average Record
Temperature  
Mean Temperature 56 °F -  
Max Temperature 72 °F 58 °F 73 °F (2002)
Min Temperature 39 °F 40 °F 28 °F (2007)
Degree Days  
Heating Degree Days 10    
Growing Degree Days 6 (Base 50)    
Moisture  
Dew Point 26 °F    
Average Humidity 36    
Maximum Humidity 55    
Minimum Humidity 18    
Precipitation  
Precipitation 0.00 in - - ()
Sea Level Pressure  
Sea Level Pressure 30.20 in    
Wind  
Wind Speed 5 mph (West)    
Max Wind Speed 14 mph    
Max Gust Speed 20 mph    
Visibility 10 miles    
Events      
Averages and records for this station are not official NWS values.
T = Trace of Precipitation, MM = Missing Value Source: NWS Daily Summary

Daily Weather History Graph

Daily Weather History Graph

Search for Another Location

Airport or City:

Trip Planner

Search our weather history database for the weather conditions in past years. The results will help you decide how hot, cold, wet, or windy it might be!

Date:

Astronomy

Jan. 16, 2014 Rise Set
Actual Time 7:29 AM CST 5:51 PM CST
Civil Twilight 7:03 AM CST 6:18 PM CST
Nautical Twilight 6:33 AM CST 6:47 PM CST
Astronomical Twilight 6:04 AM CST 7:16 PM CST
Moon 6:38 PM CST (1/16) 7:29 AM CST (1/16)
Length of Visible Light 11h 14m
Length of Day
10h 22m
Full, 100% of the Moon is Illuminated
Jan 16
Full
Jan 23
Last Quarter
Jan 30
New
Feb 6
First Quarter
Feb 14
Full

Hourly Weather History & Observations

Time (CST) Temp. Windchill Dew Point Humidity Pressure Visibility Wind Dir Wind Speed Gust Speed Precip Events Conditions
12:56 AM 44.1 °F 41.5 °F 25.0 °F 47% 30.22 in 10.0 mi SSE 4.6 mph - N/A   Clear
1:56 AM 44.1 °F 41.5 °F 25.0 °F 47% 30.19 in 10.0 mi South 4.6 mph - N/A   Clear
2:56 AM 46.9 °F - 24.1 °F 41% 30.15 in 10.0 mi South 9.2 mph - N/A   Clear
3:56 AM 46.9 °F - 21.9 °F 37% 30.16 in 10.0 mi SSE 3.5 mph - N/A   Clear
4:56 AM 44.1 °F 41.5 °F 21.9 °F 42% 30.14 in 10.0 mi South 4.6 mph - N/A   Clear
5:56 AM 44.1 °F 40.8 °F 21.9 °F 42% 30.14 in 10.0 mi South 5.8 mph - N/A   Clear
6:56 AM 41.0 °F - 21.9 °F 47% 30.15 in 10.0 mi Calm Calm - N/A   Clear
7:56 AM 39.9 °F - 25.0 °F 55% 30.19 in 10.0 mi Calm Calm - N/A   Clear
8:56 AM 48.9 °F - 23.0 °F 36% 30.21 in 10.0 mi Calm Calm - N/A   Clear
9:56 AM 55.9 °F - 23.0 °F 28% 30.22 in 10.0 mi SW 8.1 mph - N/A   Clear
10:56 AM 60.1 °F - 24.1 °F 25% 30.23 in 10.0 mi SW 6.9 mph - N/A   Clear
11:56 AM 63.0 °F - 25.0 °F 24% 30.20 in 10.0 mi SW 9.2 mph - N/A   Clear
12:56 PM 66.9 °F - 26.1 °F 21% 30.17 in 10.0 mi WNW 6.9 mph - N/A   Clear
1:56 PM 69.1 °F - 25.0 °F 19% 30.15 in 10.0 mi West 3.5 mph - N/A   Clear
2:56 PM 71.1 °F - 26.1 °F 19% 30.14 in 10.0 mi West 5.8 mph - N/A   Clear
3:56 PM 72.0 °F - 26.1 °F 18% 30.16 in 10.0 mi North 9.2 mph - N/A   Clear
4:56 PM 68.0 °F - 28.0 °F 22% 30.18 in 10.0 mi North 13.8 mph 19.6 mph N/A   Clear
5:56 PM 62.1 °F - 28.9 °F 29% 30.20 in 10.0 mi North 9.2 mph - N/A   Clear
6:56 PM 57.9 °F - 30.9 °F 36% 30.23 in 10.0 mi North 8.1 mph - N/A   Clear
7:56 PM 55.0 °F - 30.9 °F 40% 30.25 in 10.0 mi North 4.6 mph - N/A   Clear
8:56 PM 55.9 °F - 30.9 °F 39% 30.27 in 10.0 mi NNW 5.8 mph - N/A   Clear
9:56 PM 51.1 °F - 32.0 °F 48% 30.30 in 10.0 mi NW 3.5 mph - N/A   Clear
10:56 PM 52.0 °F - 32.0 °F 47% 30.31 in 10.0 mi WNW 3.5 mph - N/A   Clear
11:56 PM 52.0 °F - 30.9 °F 45% 30.32 in 10.0 mi NW 5.8 mph - N/A   Clear